Time,TemperatureF,DewpointF,PressureIn,WindDirection,WindDirectionDegrees,WindSpeedMPH,WindSpeedGustMPH,Humidity,HourlyPrecipIn,Conditions,Clouds,dailyrainin,SoftwareType,DateUTC
2013-04-25 00:00:00,55.0,53.0,-100.00,SW,221,3.0,9.0,94,-99.99,,,-99.99,,2013-04-25 04:00:00,
2013-04-25 00:23:00,55.0,53.0,-100.00,SW,221,3.0,9.0,94,-99.99,,,-99.99,,2013-04-25 04:23:00,
2013-04-25 00:33:00,55.0,53.0,-100.00,SW,221,3.0,9.0,94,-99.99,,,-99.99,,2013-04-25 04:33:00,
2013-04-25 00:43:00,55.0,53.0,-100.00,SW,221,3.0,9.0,94,-99.99,,,-99.99,,2013-04-25 04:43:00,
2013-04-25 00:52:00,55.0,53.0,-100.00,SW,221,3.0,9.0,94,-99.99,,,-99.99,,2013-04-25 04:52:00,
2013-04-25 01:00:00,55.0,53.0,-100.00,SSE,160,2.0,7.0,94,-99.99,,,-99.99,,2013-04-25 05:00:00,
2013-04-25 01:22:00,55.0,53.0,-100.00,SSE,160,2.0,7.0,94,-99.99,,,-99.99,,2013-04-25 05:22:00,
2013-04-25 01:32:00,55.0,53.0,-100.00,SSE,160,2.0,7.0,94,-99.99,,,-99.99,,2013-04-25 05:32:00,
2013-04-25 01:42:00,55.0,53.0,-100.00,SSE,160,2.0,7.0,94,-99.99,,,-99.99,,2013-04-25 05:42:00,
2013-04-25 01:52:00,55.0,53.0,-100.00,SSE,160,2.0,7.0,94,-99.99,,,-99.99,,2013-04-25 05:52:00,
2013-04-25 02:00:00,55.0,53.0,-100.00,WNW,295,1.0,6.0,96,-99.99,,,-99.99,,2013-04-25 06:00:00,
2013-04-25 02:22:00,55.0,53.0,-100.00,WNW,295,1.0,6.0,96,-99.99,,,-99.99,,2013-04-25 06:22:00,
2013-04-25 02:32:00,55.0,53.0,-100.00,WNW,295,1.0,6.0,96,-99.99,,,-99.99,,2013-04-25 06:32:00,
2013-04-25 02:42:00,55.0,53.0,-100.00,WNW,295,1.0,6.0,96,-99.99,,,-99.99,,2013-04-25 06:42:00,
2013-04-25 02:52:00,55.0,53.0,-100.00,WNW,295,1.0,6.0,96,-99.99,,,-99.99,,2013-04-25 06:52:00,
2013-04-25 03:00:00,58.0,48.0,-100.00,NNW,347,16.0,26.0,68,-99.99,,,-99.99,,2013-04-25 07:00:00,
2013-04-25 03:32:00,58.0,48.0,-100.00,NNW,347,16.0,26.0,68,-99.99,,,-99.99,,2013-04-25 07:32:00,
2013-04-25 03:42:00,58.0,48.0,-100.00,NNW,347,16.0,26.0,68,-99.99,,,-99.99,,2013-04-25 07:42:00,
2013-04-25 03:52:00,58.0,48.0,-100.00,NNW,347,16.0,26.0,68,-99.99,,,-99.99,,2013-04-25 07:52:00,
2013-04-25 04:00:00,55.0,43.0,-100.00,NNW,339,14.0,26.0,65,-99.99,,,-99.99,,2013-04-25 08:00:00,
2013-04-25 04:22:00,55.0,43.0,-100.00,NNW,339,14.0,26.0,65,-99.99,,,-99.99,,2013-04-25 08:22:00,
2013-04-25 04:32:00,55.0,43.0,-100.00,NNW,339,14.0,26.0,65,-99.99,,,-99.99,,2013-04-25 08:32:00,
2013-04-25 04:42:00,55.0,43.0,-100.00,NNW,339,14.0,26.0,65,-99.99,,,-99.99,,2013-04-25 08:42:00,
2013-04-25 04:52:00,55.0,43.0,-100.00,NNW,339,14.0,26.0,65,-99.99,,,-99.99,,2013-04-25 08:52:00,
2013-04-25 05:00:00,51.0,35.0,-100.00,NW,316,14.0,30.0,55,-99.99,,,-99.99,,2013-04-25 09:00:00,
2013-04-25 05:22:00,51.0,35.0,-100.00,NW,316,14.0,30.0,55,-99.99,,,-99.99,,2013-04-25 09:22:00,
2013-04-25 05:33:00,51.0,35.0,-100.00,NW,316,14.0,30.0,55,-99.99,,,-99.99,,2013-04-25 09:33:00,
2013-04-25 05:42:00,51.0,35.0,-100.00,NW,316,14.0,30.0,55,-99.99,,,-99.99,,2013-04-25 09:42:00,
2013-04-25 05:53:00,51.0,35.0,-100.00,NW,316,14.0,30.0,55,-99.99,,,-99.99,,2013-04-25 09:53:00,
2013-04-25 06:00:00,48.0,38.0,-100.00,NNW,338,12.0,42.0,66,-99.99,,,-99.99,,2013-04-25 10:00:00,
2013-04-25 06:22:00,48.0,38.0,-100.00,NNW,338,12.0,42.0,66,-99.99,,,-99.99,,2013-04-25 10:22:00,
2013-04-25 06:33:00,48.0,38.0,-100.00,NNW,338,12.0,42.0,66,-99.99,,,-99.99,,2013-04-25 10:33:00,
2013-04-25 06:42:00,48.0,38.0,-100.00,NNW,338,12.0,42.0,66,-99.99,,,-99.99,,2013-04-25 10:42:00,
2013-04-25 06:53:00,48.0,38.0,-100.00,NNW,338,12.0,42.0,66,-99.99,,,-99.99,,2013-04-25 10:53:00,
2013-04-25 07:00:00,48.0,36.0,-100.00,North,351,16.0,29.0,63,-99.99,,,-99.99,,2013-04-25 11:00:00,
2013-04-25 07:22:00,48.0,36.0,-100.00,North,351,16.0,29.0,63,-99.99,,,-99.99,,2013-04-25 11:22:00,
2013-04-25 07:33:00,48.0,36.0,-100.00,North,351,16.0,29.0,63,-99.99,,,-99.99,,2013-04-25 11:33:00,
2013-04-25 07:42:00,48.0,36.0,-100.00,North,351,16.0,29.0,63,-99.99,,,-99.99,,2013-04-25 11:42:00,
2013-04-25 07:52:00,48.0,36.0,-100.00,North,351,16.0,29.0,63,-99.99,,,-99.99,,2013-04-25 11:52:00,
2013-04-25 08:00:00,48.0,34.0,-100.00,North,0,13.0,29.0,58,-99.99,,,-99.99,,2013-04-25 12:00:00,
2013-04-25 08:22:00,48.0,34.0,-100.00,North,0,13.0,29.0,58,-99.99,,,-99.99,,2013-04-25 12:22:00,
2013-04-25 08:32:00,48.0,34.0,-100.00,North,0,13.0,29.0,58,-99.99,,,-99.99,,2013-04-25 12:32:00,
2013-04-25 08:42:00,48.0,34.0,-100.00,North,0,13.0,29.0,58,-99.99,,,-99.99,,2013-04-25 12:42:00,
2013-04-25 08:52:00,48.0,34.0,-100.00,North,0,13.0,29.0,58,-99.99,,,-99.99,,2013-04-25 12:52:00,
2013-04-25 09:00:00,49.0,33.0,-100.00,NNW,329,14.0,27.0,54,-99.99,,,-99.99,,2013-04-25 13:00:00,
2013-04-25 09:21:00,49.0,33.0,-100.00,NNW,329,14.0,27.0,54,-99.99,,,-99.99,,2013-04-25 13:21:00,
2013-04-25 09:32:00,49.0,33.0,-100.00,NNW,329,14.0,27.0,54,-99.99,,,-99.99,,2013-04-25 13:32:00,
2013-04-25 09:42:00,49.0,33.0,-100.00,NNW,329,14.0,27.0,54,-99.99,,,-99.99,,2013-04-25 13:42:00,
2013-04-25 09:53:00,49.0,33.0,-100.00,NNW,329,14.0,27.0,54,-99.99,,,-99.99,,2013-04-25 13:53:00,
2013-04-25 10:00:00,51.0,34.0,-100.00,NNW,345,10.0,24.0,53,-99.99,,,-99.99,,2013-04-25 14:00:00,
2013-04-25 10:22:00,51.0,34.0,-100.00,NNW,345,10.0,24.0,53,-99.99,,,-99.99,,2013-04-25 14:22:00,
2013-04-25 10:32:00,51.0,34.0,-100.00,NNW,345,10.0,24.0,53,-99.99,,,-99.99,,2013-04-25 14:32:00,
2013-04-25 10:42:00,51.0,34.0,-100.00,NNW,345,10.0,24.0,53,-99.99,,,-99.99,,2013-04-25 14:42:00,
2013-04-25 10:52:00,51.0,34.0,-100.00,NNW,345,10.0,24.0,53,-99.99,,,-99.99,,2013-04-25 14:52:00,
2013-04-25 11:00:00,52.0,35.0,-100.00,NNW,333,9.0,25.0,52,-99.99,,,-99.99,,2013-04-25 15:00:00,
2013-04-25 11:21:00,52.0,35.0,-100.00,NNW,333,9.0,25.0,52,-99.99,,,-99.99,,2013-04-25 15:21:00,
2013-04-25 11:33:00,52.0,35.0,-100.00,NNW,333,9.0,25.0,52,-99.99,,,-99.99,,2013-04-25 15:33:00,
2013-04-25 11:42:00,52.0,35.0,-100.00,NNW,333,9.0,25.0,52,-99.99,,,-99.99,,2013-04-25 15:42:00,
2013-04-25 11:53:00,52.0,35.0,-100.00,NNW,333,9.0,25.0,52,-99.99,,,-99.99,,2013-04-25 15:53:00,
2013-04-25 12:00:00,53.0,38.0,-100.00,NNW,327,11.0,21.0,56,-99.99,,,-99.99,,2013-04-25 16:00:00,
2013-04-25 12:24:00,53.0,38.0,-100.00,NNW,327,11.0,21.0,56,-99.99,,,-99.99,,2013-04-25 16:24:00,
2013-04-25 12:33:00,53.0,38.0,-100.00,NNW,327,11.0,21.0,56,-99.99,,,-99.99,,2013-04-25 16:33:00,
2013-04-25 12:43:00,53.0,38.0,-100.00,NNW,327,11.0,21.0,56,-99.99,,,-99.99,,2013-04-25 16:43:00,
2013-04-25 12:53:00,53.0,38.0,-100.00,NNW,327,11.0,21.0,56,-99.99,,,-99.99,,2013-04-25 16:53:00,
2013-04-25 13:00:00,55.0,35.0,-100.00,NW,320,12.0,21.0,48,-99.99,,,-99.99,,2013-04-25 17:00:00,
2013-04-25 13:22:00,55.0,35.0,-100.00,NW,320,12.0,21.0,48,-99.99,,,-99.99,,2013-04-25 17:22:00,
2013-04-25 13:32:00,55.0,35.0,-100.00,NW,320,12.0,21.0,48,-99.99,,,-99.99,,2013-04-25 17:32:00,
2013-04-25 13:42:00,55.0,35.0,-100.00,NW,320,12.0,21.0,48,-99.99,,,-99.99,,2013-04-25 17:42:00,
2013-04-25 13:53:00,55.0,35.0,-100.00,NW,320,12.0,21.0,48,-99.99,,,-99.99,,2013-04-25 17:53:00,
2013-04-25 14:00:00,56.0,34.0,-100.00,NW,307,12.0,18.0,43,-99.99,,,-99.99,,2013-04-25 18:00:00,
2013-04-25 14:22:00,56.0,34.0,-100.00,NW,307,12.0,18.0,43,-99.99,,,-99.99,,2013-04-25 18:22:00,
2013-04-25 14:32:00,56.0,34.0,-100.00,NW,307,12.0,18.0,43,-99.99,,,-99.99,,2013-04-25 18:32:00,
2013-04-25 14:43:00,56.0,34.0,-100.00,NW,307,12.0,18.0,43,-99.99,,,-99.99,,2013-04-25 18:43:00,
2013-04-25 14:53:00,56.0,34.0,-100.00,NW,307,12.0,18.0,43,-99.99,,,-99.99,,2013-04-25 18:53:00,
2013-04-25 15:00:00,57.0,36.0,-100.00,NW,318,9.0,19.0,45,-99.99,,,-99.99,,2013-04-25 19:00:00,
2013-04-25 15:21:00,57.0,36.0,-100.00,NW,318,9.0,19.0,45,-99.99,,,-99.99,,2013-04-25 19:21:00,
2013-04-25 15:32:00,57.0,36.0,-100.00,NW,318,9.0,19.0,45,-99.99,,,-99.99,,2013-04-25 19:32:00,
2013-04-25 15:42:00,57.0,36.0,-100.00,NW,318,9.0,19.0,45,-99.99,,,-99.99,,2013-04-25 19:42:00,
2013-04-25 15:52:00,57.0,36.0,-100.00,NW,318,9.0,19.0,45,-99.99,,,-99.99,,2013-04-25 19:52:00,
2013-04-25 16:00:00,58.0,33.0,-100.00,West,277,8.0,16.0,38,-99.99,,,-99.99,,2013-04-25 20:00:00,
2013-04-25 16:22:00,58.0,33.0,-100.00,West,277,8.0,16.0,38,-99.99,,,-99.99,,2013-04-25 20:22:00,
2013-04-25 16:32:00,58.0,33.0,-100.00,West,277,8.0,16.0,38,-99.99,,,-99.99,,2013-04-25 20:32:00,
2013-04-25 16:43:00,58.0,33.0,-100.00,West,277,8.0,16.0,38,-99.99,,,-99.99,,2013-04-25 20:43:00,
2013-04-25 16:52:00,58.0,33.0,-100.00,West,277,8.0,16.0,38,-99.99,,,-99.99,,2013-04-25 20:52:00,
2013-04-25 17:00:00,60.0,33.0,-100.00,West,272,7.0,16.0,37,-99.99,,,-99.99,,2013-04-25 21:00:00,
2013-04-25 17:33:00,60.0,33.0,-100.00,West,272,7.0,16.0,37,-99.99,,,-99.99,,2013-04-25 21:33:00,
2013-04-25 17:42:00,60.0,33.0,-100.00,West,272,7.0,16.0,37,-99.99,,,-99.99,,2013-04-25 21:42:00,
2013-04-25 17:53:00,60.0,33.0,-100.00,West,272,7.0,16.0,37,-99.99,,,-99.99,,2013-04-25 21:53:00,
2013-04-25 18:00:00,60.0,35.0,-100.00,WSW,243,4.0,12.0,39,-99.99,,,-99.99,,2013-04-25 22:00:00,
2013-04-25 18:22:00,60.0,35.0,-100.00,WSW,243,4.0,12.0,39,-99.99,,,-99.99,,2013-04-25 22:22:00,
2013-04-25 18:33:00,60.0,35.0,-100.00,WSW,243,4.0,12.0,39,-99.99,,,-99.99,,2013-04-25 22:33:00,
2013-04-25 18:42:00,60.0,35.0,-100.00,WSW,243,4.0,12.0,39,-99.99,,,-99.99,,2013-04-25 22:42:00,
2013-04-25 18:53:00,60.0,35.0,-100.00,WSW,243,4.0,12.0,39,-99.99,,,-99.99,,2013-04-25 22:53:00,
2013-04-25 19:00:00,59.0,36.0,-100.00,NNW,329,3.0,7.0,43,-99.99,,,-99.99,,2013-04-25 23:00:00,
2013-04-25 19:22:00,59.0,36.0,-100.00,NNW,329,3.0,7.0,43,-99.99,,,-99.99,,2013-04-25 23:22:00,
2013-04-25 19:32:00,59.0,36.0,-100.00,NNW,329,3.0,7.0,43,-99.99,,,-99.99,,2013-04-25 23:32:00,
2013-04-25 19:42:00,59.0,36.0,-100.00,NNW,329,3.0,7.0,43,-99.99,,,-99.99,,2013-04-25 23:42:00,
2013-04-25 19:52:00,59.0,36.0,-100.00,NNW,329,3.0,7.0,43,-99.99,,,-99.99,,2013-04-25 23:52:00,
2013-04-25 20:00:00,52.0,40.0,-100.00,SSW,208,0.0,5.0,64,-99.99,,,-99.99,,2013-04-26 00:00:00,
2013-04-25 20:22:00,52.0,40.0,-100.00,SSW,208,0.0,5.0,64,-99.99,,,-99.99,,2013-04-26 00:22:00,
2013-04-25 20:32:00,52.0,40.0,-100.00,SSW,208,0.0,5.0,64,-99.99,,,-99.99,,2013-04-26 00:32:00,
2013-04-25 20:42:00,52.0,40.0,-100.00,SSW,208,0.0,5.0,64,-99.99,,,-99.99,,2013-04-26 00:42:00,
2013-04-25 20:52:00,52.0,40.0,-100.00,SSW,208,0.0,5.0,64,-99.99,,,-99.99,,2013-04-26 00:52:00,
2013-04-25 21:00:00,52.0,40.0,-100.00,SSE,166,3.0,9.0,64,-99.99,,,-99.99,,2013-04-26 01:00:00,
2013-04-25 21:22:00,52.0,40.0,-100.00,SSE,166,3.0,9.0,64,-99.99,,,-99.99,,2013-04-26 01:22:00,
2013-04-25 21:32:00,52.0,40.0,-100.00,SSE,166,3.0,9.0,64,-99.99,,,-99.99,,2013-04-26 01:32:00,
2013-04-25 21:42:00,52.0,40.0,-100.00,SSE,166,3.0,9.0,64,-99.99,,,-99.99,,2013-04-26 01:42:00,
2013-04-25 21:52:00,52.0,40.0,-100.00,SSE,166,3.0,9.0,64,-99.99,,,-99.99,,2013-04-26 01:52:00,
2013-04-25 22:00:00,50.0,45.0,-100.00,West,279,0.0,7.0,81,-99.99,,,-99.99,,2013-04-26 02:00:00,
2013-04-25 22:21:00,50.0,45.0,-100.00,West,279,0.0,7.0,81,-99.99,,,-99.99,,2013-04-26 02:21:00,
2013-04-25 22:32:00,50.0,45.0,-100.00,West,279,0.0,7.0,81,-99.99,,,-99.99,,2013-04-26 02:32:00,
2013-04-25 22:42:00,50.0,45.0,-100.00,West,279,0.0,7.0,81,-99.99,,,-99.99,,2013-04-26 02:42:00,
2013-04-25 22:52:00,50.0,45.0,-100.00,West,279,0.0,7.0,81,-99.99,,,-99.99,,2013-04-26 02:52:00,